When you browse on this site, cookies collect data to enhance your experience and personalize the content and advertising you see.
Visit our Privacy Policy to learn more. By continuing to use the site, you agree to this use of cookies and data.
  • In Romania
  • List of Countries
  • For 7 days
  • Water Temperature
  • Satellite Maps
  • Weather Map
  • Weather Widgets
  • user-avatar
    Login

    Hourly Weather Klaczyna

    Today, 15 February, Friday

    Time Temperature Precipitation Wind Pressure Humidity
    00:00 +3°C° 0 mm 1 mps 753 mmHg 88%
    01:00 +3°C° 0 mm 1 mps 752 mmHg 87%
    02:00 +3°C° 0 mm 1 mps 752 mmHg 86%
    03:00 +2°C° 0 mm 2 mps 752 mmHg 84%
    04:00 +2°C° 0 mm 2 mps 752 mmHg 83%
    05:00 +2°C° 0 mm 2 mps 752 mmHg 81%
    06:00 +1°C° 0 mm 2 mps 752 mmHg 80%
    07:00 +1°C° 0 mm 2 mps 752 mmHg 77%
    08:00 +3°C° 0 mm 2 mps 752 mmHg 75%
    09:00 +4°C° 0 mm 2 mps 752 mmHg 73%
    10:00 +6°C° 0 mm 2 mps 752 mmHg 70%
    11:00 +7°C° 0 mm 2 mps 752 mmHg 68%
    12:00 +8°C° 0 mm 2 mps 752 mmHg 66%
    13:00 +8°C° 0 mm 2 mps 752 mmHg 64%
    14:00 +8°C° 0 mm 2 mps 752 mmHg 66%
    15:00 +8°C° 0 mm 2 mps 752 mmHg 68%
    16:00 +7°C° 0 mm 2 mps 751 mmHg 69%
    17:00 +6°C° 0 mm 2 mps 751 mmHg 69%
    18:00 +6°C° 0 mm 1 mps 751 mmHg 68%
    19:00 +5°C° 0 mm 1 mps 751 mmHg 68%
    20:00 +5°C° 0 mm 1 mps 751 mmHg 65%
    21:00 +5°C° 0 mm 1 mps 751 mmHg 62%
    22:00 +4°C° 0 mm 1 mps 750 mmHg 59%
    23:00 +4°C° 0 mm 1 mps 750 mmHg 57%

    Tomorrow, 16 February, Saturday

    Time Temperature Precipitation Wind Pressure Humidity
    00:00 +4°C° 0 mm 1 mps 750 mmHg 55%
    01:00 +4°C° 0 mm 1 mps 750 mmHg 53%
    02:00 +4°C° 0 mm 1 mps 750 mmHg 52%
    03:00 +4°C° 0 mm 1 mps 750 mmHg 51%
    04:00 +3°C° 0 mm 2 mps 750 mmHg 50%
    05:00 +3°C° 0 mm 2 mps 749 mmHg 49%
    06:00 +3°C° 0 mm 2 mps 749 mmHg 49%
    07:00 +3°C° 0 mm 2 mps 749 mmHg 48%
    08:00 +4°C° 0 mm 2 mps 749 mmHg 51%
    09:00 +6°C° 0 mm 2 mps 749 mmHg 53%
    10:00 +8°C° 0 mm 2 mps 749 mmHg 55%
    11:00 +9°C° 0 mm 2 mps 749 mmHg 56%
    12:00 +10°C° 0 mm 2 mps 749 mmHg 57%
    13:00 +12°C° 0 mm 2 mps 748 mmHg 58%
    14:00 +10°C° 0 mm 2 mps 748 mmHg 60%
    15:00 +10°C° 0 mm 2 mps 748 mmHg 62%
    16:00 +9°C° 0 mm 2 mps 747 mmHg 65%
    17:00 +8°C° 0 mm 2 mps 747 mmHg 62%
    18:00 +7°C° 0 mm 3 mps 747 mmHg 59%
    19:00 +4°C° 0 mm 3 mps 747 mmHg 56%
    20:00 +4°C° 0 mm 3 mps 747 mmHg 55%
    21:00 +4°C° 0 mm 3 mps 747 mmHg 55%
    22:00 +4°C° 0 mm 3 mps 747 mmHg 54%
    23:00 +3°C° 0 mm 3 mps 747 mmHg 56%

    Day after tomorrow, 17 February, Sunday

    Time Temperature Precipitation Wind Pressure Humidity
    00:00 +3°C° 0 mm 3 mps 747 mmHg 58%
    01:00 +3°C° 0 mm 3 mps 747 mmHg 60%
    02:00 +4°C° 0 mm 2 mps 747 mmHg 60%
    03:00 +3°C° 0 mm 2 mps 747 mmHg 61%
    04:00 +3°C° 0 mm 2 mps 746 mmHg 62%
    05:00 +3°C° 0 mm 2 mps 746 mmHg 62%
    06:00 +3°C° 0 mm 2 mps 746 mmHg 62%
    07:00 +3°C° 0 mm 2 mps 746 mmHg 63%
    08:00 +4°C° 0 mm 2 mps 747 mmHg 62%
    09:00 +6°C° 0 mm 2 mps 747 mmHg 62%
    10:00 +8°C° 0 mm 1 mps 747 mmHg 61%
    11:00 +9°C° 0 mm 1 mps 747 mmHg 60%
    12:00 +10°C° 0 mm 1 mps 746 mmHg 58%
    13:00 +12°C° 0 mm 1 mps 746 mmHg 56%
    14:00 +11°C° 0 mm 1 mps 746 mmHg 59%
    15:00 +11°C° 0 mm 1 mps 746 mmHg 63%
    16:00 +10°C° 0 mm 1 mps 745 mmHg 66%
    17:00 +9°C° 0 mm 1 mps 745 mmHg 66%
    18:00 +8°C° 0 mm 1 mps 745 mmHg 67%
    19:00 +5°C° 0 mm 2 mps 745 mmHg 67%
    20:00 +5°C° 0 mm 2 mps 745 mmHg 65%
    21:00 +5°C° 0 mm 2 mps 745 mmHg 63%
    22:00 +4°C° 0 mm 2 mps 745 mmHg 60%
    23:00 +4°C° 0 mm 2 mps 745 mmHg 60%

    18 February, Monday

    Time Temperature Precipitation Wind Pressure Humidity
    00:00 +4°C° 0 mm 2 mps 745 mmHg 59%
    01:00 +4°C° 0 mm 2 mps 745 mmHg 59%
    02:00 +3°C° 0 mm 2 mps 745 mmHg 59%
    03:00 +3°C° 0 mm 2 mps 745 mmHg 60%
    04:00 +3°C° 0 mm 2 mps 744 mmHg 61%
    05:00 +3°C° 0 mm 2 mps 744 mmHg 61%
    06:00 +4°C° 0 mm 1 mps 744 mmHg 62%
    07:00 +4°C° 0 mm 1 mps 744 mmHg 63%
    08:00 +5°C° 0 mm 1 mps 744 mmHg 62%
    09:00 +7°C° 0 mm 1 mps 745 mmHg 61%
    10:00 +9°C° 0 mm 1 mps 745 mmHg 60%
    11:00 +10°C° 0 mm 1 mps 744 mmHg 57%
    12:00 +11°C° 0 mm 1 mps 744 mmHg 55%
    13:00 +12°C° 0 mm 1 mps 744 mmHg 52%
    14:00 +12°C° 0 mm 1 mps 744 mmHg 55%
    15:00 +11°C° 0 mm 1 mps 743 mmHg 58%
    16:00 +11°C° 0 mm 1 mps 743 mmHg 61%
    17:00 +8°C° 0 mm 2 mps 743 mmHg 62%
    18:00 +7°C° 0 mm 2 mps 743 mmHg 63%
    19:00 +5°C° 0 mm 2 mps 743 mmHg 64%
    20:00 +4°C° 0 mm 3 mps 743 mmHg 65%
    21:00 +4°C° 0 mm 3 mps 743 mmHg 66%
    22:00 +3°C° 0 mm 3 mps 743 mmHg 67%
    23:00 +3°C° 0 mm 3 mps 743 mmHg 69%

    19 February, Tuesday

    Time Temperature Precipitation Wind Pressure Humidity
    00:00 +3°C° 0 mm 3 mps 743 mmHg 71%
    01:00 +3°C° 0 mm 3 mps 742 mmHg 73%
    02:00 +2°C° 0 mm 3 mps 742 mmHg 73%
    03:00 +2°C° 0 mm 3 mps 742 mmHg 73%
    04:00 +2°C° 0 mm 3 mps 742 mmHg 74%
    05:00 +2°C° 0 mm 3 mps 742 mmHg 74%
    06:00 +2°C° 0 mm 3 mps 742 mmHg 74%
    07:00 +2°C° 0 mm 3 mps 741 mmHg 74%
    08:00 +3°C° 0 mm 3 mps 742 mmHg 70%
    09:00 +5°C° 0 mm 3 mps 742 mmHg 67%
    10:00 +7°C° 0 mm 3 mps 742 mmHg 64%
    11:00 +7°C° 0 mm 4 mps 742 mmHg 61%
    12:00 +8°C° 0 mm 4 mps 741 mmHg 59%
    13:00 +10°C° 0 mm 4 mps 741 mmHg 56%
    14:00 +10°C° 0 mm 4 mps 741 mmHg 58%
    15:00 +8°C° 0 mm 4 mps 740 mmHg 61%
    16:00 +7°C° 0 mm 4 mps 740 mmHg 63%
    17:00 +7°C° 0 mm 4 mps 741 mmHg 67%
    18:00 +6°C° 0 mm 4 mps 741 mmHg 70%
    19:00 +5°C° 0 mm 4 mps 741 mmHg 73%
    20:00 +5°C° 0.1 mm 4 mps 741 mmHg 79%
    21:00 +5°C° 0.1 mm 3 mps 742 mmHg 84%
    22:00 +5°C° 0.1 mm 3 mps 742 mmHg 89%
    23:00 +4°C° 0 mm 3 mps 742 mmHg 90%

    20 February, Wednesday

    Time Temperature Precipitation Wind Pressure Humidity
    00:00 +3°C° 0 mm 3 mps 743 mmHg 90%
    01:00 +3°C° 0 mm 3 mps 743 mmHg 90%
    02:00 +2°C° 0 mm 3 mps 743 mmHg 90%
    03:00 +2°C° 0 mm 3 mps 743 mmHg 89%
    04:00 +2°C° 0 mm 3 mps 743 mmHg 88%
    05:00 +1°C° 0 mm 3 mps 743 mmHg 88%
    06:00 +1°C° 0 mm 3 mps 743 mmHg 88%
    07:00 +1°C° 0 mm 3 mps 744 mmHg 88%
    08:00 +1°C° 0 mm 4 mps 744 mmHg 81%
    09:00 +4°C° 0 mm 4 mps 744 mmHg 75%
    10:00 +5°C° 0 mm 5 mps 745 mmHg 68%
    11:00 +6°C° 0 mm 5 mps 745 mmHg 64%
    12:00 +7°C° 0 mm 5 mps 745 mmHg 61%
    13:00 +7°C° 0 mm 5 mps 745 mmHg 57%
    14:00 +7°C° 0 mm 5 mps 744 mmHg 60%
    15:00 +7°C° 0 mm 4 mps 744 mmHg 62%
    16:00 +7°C° 0 mm 4 mps 744 mmHg 64%
    17:00 +7°C° 0 mm 3 mps 744 mmHg 69%
    18:00 +5°C° 0 mm 3 mps 745 mmHg 74%
    19:00 +3°C° 0 mm 3 mps 745 mmHg 79%
    20:00 +4°C° 0 mm 3 mps 745 mmHg 79%
    21:00 +4°C° 0 mm 3 mps 745 mmHg 79%
    22:00 +4°C° 0 mm 3 mps 745 mmHg 79%
    23:00 +4°C° 0.1 mm 3 mps 745 mmHg 79%
    Show more